Location: Bouchavesnes-Bergen
(49.9859°N, 2.9203°E)
Time: 02:32:05
(UTC+00:00)

IDEFIX/ARIANE 42P - Pass Details

Date: 30 September 2022
Orbit: 784 x 803 km, 98.5° (Epoch: 06 December)

Event Time Altitude Azimuth Distance (km) Brightness Sun altitude
Rises 04:23:54 0° 0° (N) 3,329 6.0 -14.0°
Reaches altitude 10° 04:28:37 10° 322° (NW) 2,392 4.8 -13.3°
Maximum altitude 04:29:27 10° 313° (NW) 2,365 4.7 -13.2°
Drops below altitude 10° 04:30:17 10° 303° (WNW) 2,390 4.6 -13.0°
Enters shadow 04:30:40 10° 299° (WNW) 2,418 4.6 -13.0°
